Change the Weather History Date:

Sunday, March 16, 2014

  Actual Average Record
Temperature  
Mean Temperature 56 °F -  
Max Temperature 70 °F 64 °F 71 °F (1997)
Min Temperature 43 °F 44 °F 30 °F (2013)
Degree Days  
Heating Degree Days 8    
Growing Degree Days 6 (Base 50)    
Moisture  
Dew Point 44 °F    
Average Humidity 64    
Maximum Humidity 93    
Minimum Humidity 25    
Precipitation  
Precipitation 0.00 in 0.05 in - ()
Sea Level Pressure  
Sea Level Pressure 30.17 in    
Wind  
Wind Speed 4 mph ()    
Max Wind Speed 16 mph    
Max Gust Speed -    
Visibility 11.5 miles    
Events      
Averages and records for this station are not official NWS values.
T = Trace of Precipitation, MM = Missing Value Source: Averaged Metar Reports

Daily Weather History Graph

Daily Weather History Graph

Search for Another Location

Airport or City:

Trip Planner

Search our weather history database for the weather conditions in past years. The results will help you decide how hot, cold, wet, or windy it might be!

Date:

Astronomy

Mar. 16, 2014 Rise Set
Actual Time 6:59 AM CET 6:56 PM CET
Civil Twilight 6:32 AM CET 7:23 PM CET
Nautical Twilight 6:01 AM CET 7:54 PM CET
Astronomical Twilight 5:29 AM CET 8:26 PM CET
Moon 6:59 PM CET (3/16) 6:34 AM CET (3/16)
Length of Visible Light 12h 51m
Length of Day
11h 57m
Full, 100% of the Moon is Illuminated
Mar 16
Full
Mar 16
Full
Mar 24
Last Quarter
Mar 30
New
Apr 7
First Quarter

Hourly Weather History & Observations

Time (CET) Temp. Windchill Dew Point Humidity Pressure Visibility Wind Dir Wind Speed Gust Speed Precip Events Conditions
12:00 AM 46 °F - 41 °F 77% 30.22 in - South 2.3 mph - -  
12:00 AM 48.2 °F - 42.8 °F 82% 30.21 in - Variable 2.3 mph - N/A   Clear
12:30 AM 50.0 °F - 46.4 °F 87% 30.21 in - SW 5.8 mph - N/A   Clear
1:00 AM 47 °F - 43 °F 82% 30.20 in 9 mi East 2.3 mph - -   Mostly Cloudy
1:00 AM 48.2 °F - 42.8 °F 82% 30.18 in - SSW 3.5 mph - N/A   Clear
1:30 AM 48.2 °F - 44.6 °F 87% 30.18 in - Variable 2.3 mph - N/A   Clear
2:00 AM 49 °F - 44 °F 78% 30.17 in - NW 1.2 mph - -  
2:00 AM 48.2 °F - 44.6 °F 87% 30.15 in - Variable 1.2 mph - N/A   Clear
2:30 AM 48.2 °F - 44.6 °F 87% 30.15 in - Variable 1.2 mph - N/A   Clear
3:00 AM 48 °F - 44 °F 80% 30.17 in - Calm Calm - -  
3:00 AM 50.0 °F - 44.6 °F 82% 30.15 in - North 1.2 mph - N/A   Clear
3:30 AM 50.0 °F - 42.8 °F 76% 30.15 in - West 5.8 mph - N/A   Clear
4:00 AM 52 °F - 46 °F 74% 30.14 in 9 mi West 5.8 mph - -   Partly Cloudy
4:00 AM 51.8 °F - 44.6 °F 76% 30.12 in - WSW 6.9 mph - N/A   Clear
4:30 AM 50.0 °F - 42.8 °F 76% 30.12 in - WNW 1.2 mph - N/A   Clear
5:00 AM 44 °F - 41 °F 83% 30.14 in - NE 2.3 mph - -  
5:00 AM 44.6 °F - 41.0 °F 87% 30.12 in - NNE 2.3 mph - N/A   Clear
5:30 AM 42.8 °F - 39.2 °F 87% 30.12 in - Calm Calm - N/A   Clear
6:00 AM 44 °F - 41 °F 86% 30.14 in - Calm Calm - -  
6:00 AM 42.8 °F - 41.0 °F 93% 30.12 in - Calm Calm - N/A   Clear
6:30 AM 44.6 °F - 41.0 °F 87% 30.12 in - Calm Calm - N/A   Clear
7:00 AM 45 °F - 43 °F 90% 30.16 in 7 mi East 3.5 mph - -   Scattered Clouds
7:00 AM 44.6 °F 43.1 °F 42.8 °F 93% 30.15 in - ENE 3.5 mph - N/A   Clear
7:30 AM 46.4 °F - 44.6 °F 93% 30.15 in - Variable 2.3 mph - N/A   Clear
8:00 AM 54 °F - 40 °F 47% 29.83 in - North 2.3 mph - -  
8:00 AM 48.2 °F - 46.4 °F 93% 30.15 in - Variable 1.2 mph - N/A   Clear
8:30 AM 53.6 °F - 48.2 °F 82% 30.15 in 6.2 mi Calm Calm - N/A   Partly Cloudy
9:00 AM 58 °F - 47 °F 57% 30.19 in - Calm Calm - -  
9:00 AM 57.2 °F - 48.2 °F 72% 30.18 in - Calm Calm - N/A   Clear
9:30 AM 62.6 °F - 46.4 °F 55% 30.18 in - Variable 1.2 mph - N/A   Clear
10:00 AM 64 °F - 46 °F 41% 30.19 in 19 mi SW 4.6 mph - -   Clear
10:00 AM 62.6 °F - 48.2 °F 59% 30.18 in - Variable 2.3 mph - N/A   Clear
10:30 AM 64.4 °F - 46.4 °F 52% 30.18 in - SW 8.1 mph - N/A   Clear
11:00 AM 67 °F - 44 °F 32% 30.20 in - SW 8.1 mph - -  
11:00 AM 64.4 °F - 44.6 °F 49% 30.18 in - WSW 6.9 mph - N/A   Clear
11:30 AM 66.2 °F - 44.6 °F 46% 30.18 in - SW 9.2 mph - N/A   Clear
12:00 PM 68 °F - 42 °F 27% 30.20 in - SW 15.0 mph - -  
12:00 PM 68.0 °F - 42.8 °F 40% 30.18 in - SW 12.7 mph - N/A   Clear
12:30 PM 66.2 °F - 41.0 °F 40% 30.18 in 6.2 mi SW 13.8 mph - N/A   Partly Cloudy
1:00 PM 69 °F - 42 °F 27% 30.20 in 19 mi SW 15.0 mph - -   Scattered Clouds
1:00 PM 68.0 °F - 42.8 °F 40% 30.18 in 6.2 mi SW 11.5 mph - N/A   Partly Cloudy
1:30 PM 68.0 °F - 42.8 °F 40% 30.18 in 6.2 mi WSW 11.5 mph - N/A   Partly Cloudy
2:00 PM 70 °F - 42 °F 25% 30.18 in - SW 15.0 mph - -  
2:00 PM 68.0 °F - 42.8 °F 40% 30.18 in - SW 13.8 mph - N/A   Clear
2:30 PM 68.0 °F - 42.8 °F 40% 30.15 in - SW 15.0 mph - N/A   Clear
3:00 PM 70 °F - 44 °F 27% 30.17 in - WSW 13.8 mph - -  
3:00 PM 68.0 °F - 44.6 °F 43% 30.15 in - WSW 11.5 mph - N/A   Clear
3:30 PM 68.0 °F - 42.8 °F 40% 30.15 in - SW 11.5 mph - N/A   Clear
4:00 PM 69 °F - 42 °F 26% 30.17 in 19 mi WSW 16.1 mph - -  
4:00 PM 68.0 °F - 41.0 °F 37% 30.15 in - WSW 13.8 mph - N/A   Clear
4:30 PM 68.0 °F - 42.8 °F 40% 30.15 in - WSW 13.8 mph - N/A   Clear
5:00 PM 69 °F - 41 °F 25% 30.17 in - WSW 15.0 mph - -  
5:00 PM 68.0 °F - 41.0 °F 37% 30.15 in - WSW 15.0 mph - N/A   Clear
5:30 PM 66.2 °F - 39.2 °F 37% 30.15 in - WSW 13.8 mph - N/A   Clear
6:00 PM 65 °F - 46 °F 39% 30.18 in - SW 11.5 mph - -  
6:00 PM 64.4 °F - 42.8 °F 45% 30.15 in - SW 9.2 mph - N/A   Clear
6:30 PM 60.8 °F - 50.0 °F 68% 30.18 in - SSW 8.1 mph - N/A   Clear
7:00 PM 59 °F - 50 °F 64% 30.19 in 19 mi South 9.2 mph - -   Clear
7:00 PM 59.0 °F - 50.0 °F 72% 30.18 in - SSW 4.6 mph - N/A   Clear
7:30 PM 59.0 °F - 50.0 °F 72% 30.18 in - SSW 5.8 mph - N/A   Clear
8:00 PM 58 °F - 50 °F 68% 30.20 in - South 5.8 mph - -  
8:00 PM 57.2 °F - 50.0 °F 77% 30.18 in - Calm Calm - N/A   Clear
8:30 PM 57.2 °F - 50.0 °F 77% 30.18 in - Variable 1.2 mph - N/A   Clear
9:00 PM 53 °F - 46 °F 68% 30.22 in - East 1.2 mph - -  
9:00 PM 53.6 °F - 46.4 °F 77% 30.21 in - Calm Calm - N/A   Clear
9:30 PM 53.6 °F - 46.4 °F 77% 30.21 in - Calm Calm - N/A   Clear
10:00 PM 50 °F - 44 °F 75% 30.23 in 12 mi East 2.3 mph - -  
10:00 PM 50.0 °F - 44.6 °F 82% 30.21 in - Calm Calm - N/A   Clear
10:30 PM 50.0 °F - 44.6 °F 82% 30.21 in - Calm Calm - N/A   Clear
11:00 PM 48 °F - 43 °F 77% 30.23 in - East 2.3 mph - -  
11:00 PM 48.2 °F - 42.8 °F 82% 30.21 in - Calm Calm - N/A   Clear
11:30 PM 46.4 °F - 42.8 °F 87% 30.21 in - Calm Calm - N/A   Clear